COSMOS 1275 DEB, 39936

Orbit data source: Space-Track

COSMOS 1275 DEB, 39936 is space debris in LEO originally from a launch on Thu, 04 Jun 1981 UTC launched from the Plesetsk Missile And Space Complex (PKMTR). Debris objects in space refer to the collection of defunct objects orbiting the Earth. Examples of debris include non-operational satellites, rocket bodies, and fragments generated from explosions, collisions, or faulty payload assembly.

Loading next visibility...
Identifier
39936, 1981-053MW
Orbit
LEO
Country
Flag of CISCIS
Related business
Manufacturer
Unknown
Mission
Spacecraft
Bus & Motor
Unknown
Mass
Unknown
Launch date (UTC)
1981-06-04 (45 years ago)
Launch vehicle
Unknown
Launch site
Plesetsk Missile And Space Complex (PKMTR)
Object type
Payload
Rocket body
Debris
Shape & HBR
Unknown shape, 0.1 m
Radar Cross Section
Small (<0.1 m²)

Expand to show TLE details & history
Last TLE update: 6 days ago

TLE from 6 days ago
0 COSMOS 1275 DEB
1 39936U 81053MW  26167.37158591  .00001028  00000-0  79426-3 0  9990
2 39936  83.1494 200.1520 0058570 185.8631 174.1857 13.91119145598547
Epoch: 2026-06-16T08:55Z
TLE epoch observation values (Epoch: 2026-06-16T08:55:05.022Z)
Latitude
0.00001°
Longitude
161.7365°
Altitude
970.203 km
Speed
7.345 km/s
True Right ascension
13h 20m 36s
True Declination
0° 00' 00"
Sunlit
Object was in daylight at epoch
Visualization orbit readout
Latitude
Unknown
Longitude
Unknown
Altitude
Unknown
Speed
Unknown
Apparent Right ascension
Unknown
Apparent Declination
Unknown
Sunlit
N/A
Visualization observer readout
Local Sidereal Time
00:08:59
Azimuth
Unknown
Elevation
Unknown
Doppler factor
Unknown
Orbital elements
Apogee altitude
964.586 km
Perigee altitude
879.074 km
Semi-major axis
7,299.967 km
Eccentricity
0.00586
Inclination
83.1494°
RAAN
200.152°
Arg. of periapsis
185.8631°
True anomaly
174.2532°
Mean anomaly
174.1857°
Eccentric anomaly
174.2195°
Mean motion
3.47986 °/min
Orbital period
103.45 mins
BSTAR
0.00079426
Loading maneuver chart data...
Computing Atmospheric mass density...

Documentation

Showing up to 5 results
|